Regional Weather Roundup
Issued by NWS Charleston, SC

Current Version | Previous Version | Text Only | Print | Product List | Glossary Off
Versions: 1 2 3 4 5 6 7 8 9 10 11 12 13 14 15 16 17 18 19 20 21 22 23 24 25 26 27 28 29 30 31 32 33 34 35 36 37 38 39 40 41 42 43 44 45 46 47 48 49 50

000
ASUS42 KCHS 261010
RWRCHS
REGIONAL WEATHER ROUNDUP
NATIONAL WEATHER SERVICE CHARLESTON SC
500 AM EST WED NOV 26 2014

NOTE: "FAIR" INDICATES FEW OR NO CLOUDS BELOW 12,000 FEET WITH NO
SIGNIFICANT WEATHER AND/OR OBSTRUCTIONS TO VISIBILITY.

NOT ALL STATIONS ARE QUALITY CONTROLLED BY THE NATIONAL
WEATHER SERVICE. USE DATA WITH CAUTION...ESPECIALLY
DEWPOINT OBSERVATIONS.

SCZ027-030-031-034>040-042>050-261100-
...SOUTHEAST SOUTH CAROLINA...

CITY           SKY/WX    TMP DP  RH WIND       PRES   REMARKS
N CHARLESTON   LGT RAIN  59  58  96 NW13      29.81R
WATERFRONT PRK   N/A     59 N/A N/A NW7         N/A
MOUNT PLEASANT NOT AVBL
JOHNS ISLAND   HVY RAIN  59  59 100 NW10      29.81R VSB 3/4
PINOPOLIS        N/A     23  30 100 NW13        N/A  WCI  11
MONCKS CORNER  RAIN      59  59 100 W8        29.81R
SUMMERVILLE    DRIZZLE   57  57 100 NW14      29.84R
BEAUFORT MCAS  LGT RAIN  53  50  89 NW14G23   29.87S FOG
BEAUFORT ARPT  CLOUDY   N/A N/A N/A W16G23    29.86R HAZE
HILTON HEAD IS NOT AVBL
WALTERBORO     RAIN      54 N/A N/A NW13      29.86R
ALLENDALE      LGT RAIN  50  50 100 NW7G20    29.90R

...SOUTHERN MIDLANDS AND PEE DEE...

CITY           SKY/WX    TMP DP  RH WIND       PRES   REMARKS
GEORGETOWN     NOT AVBL
KINGSTREE      NOT AVBL
ORANGEBURG     LGT RAIN  53  50  89 N10       29.88R
BARNWELL       DRIZZLE   50  48  93 NW9       29.93R
AIKEN          RAIN      48  48 100 N8        29.94F
MANNING        NOT AVBL
COLUMBIA       RAIN      51  48  89 N13G22    29.93R FOG
SUMTER         HVY RAIN  50  46  87 NW13G20   29.88R FOG
FLORENCE       HVY RAIN  52  50  93 N14       29.83R FOG
MYRTLE BEACH   CLOUDY    70  64  83 SW9G21    29.75R
N MYRTLE BEACH CLOUDY    68  65  90 SW13      29.74R

$$

GAZ063-065-086>088-099>101-113>116-118-119-134>141-150-261100-
...SOUTHEAST GEORGIA...

CITY           SKY/WX    TMP DP  RH WIND       PRES   REMARKS
SAVANNAH ARPT  CLOUDY    52  48  86 NW10      29.89F
HUNTER AAF     LGT RAIN  50  50 100 NW16G22   29.86F
FORT STEWART   RAIN      49  47  92 NW12G21   29.91S
STATESBORO     NOT AVBL
SYLVANIA       DRIZZLE   48  48  97 N13       29.92F
CLAXTON        RAIN      50  41  71 NW8       29.93F

...CSRA...CENTRAL AND FAR SOUTHEAST GEORGIA...

CITY           SKY/WX    TMP DP  RH WIND       PRES   REMARKS
THOMSON        CLOUDY    49  49 100 CALM      30.00F
AUGUSTA-BUSH   LGT RAIN  48  47  96 NW9       29.94F FOG
AUGUSTA-DANIEL LGT RAIN  49  47  93 NW7       29.94F
SWAINSBORO     RAIN     N/A N/A N/A NW10      29.97R
VIDALIA        HVY RAIN  46  46 100 NW7       29.98R
HAZLEHURST     RAIN      48  48 100 NW9       29.99R
ALMA           LGT RAIN  47  45  93 NW12      29.98S FOG
WAYCROSS       HVY RAIN  51  49  95 N16G22    29.99R
JESUP          DRIZZLE   50  50 100 NW10      29.97R
BAXLEY         LGT RAIN  48  46  93 NW10G17   29.99R
BRUNSWICK      CLOUDY    50  46  87 W9        29.93R
SAINT SIMONS   LGT RAIN  49  48  97 NW8G20    29.92R FOG

$$

SCZ027-028-034-036>038-045-046-048>050-GAZ119-141-261100-
...LAKE AND SUPPLEMENTAL COASTAL OBSERVATIONS...

STATION/POSITION TIME  TEMP    WIND        PRES    WAVE   SWELL
                       AIR SEA DIR/SP/G            HT/PER HT/PER/DIR
                 (UTC) (F)     (DEG/KT/KT) (MB)    (FT/S) (FT/S/D)
UPR LAKE MARION  NOT AVBL
WINYAH BAY       0900   67     180/  4     1007.0S
LAKE MURRAY      0900   49     330/  4/ 11 1013.2R
ACE BASIN NERRS  0900   58     310/  2     1009.0S
FORT PULASKI     1000   51     300/ 22/ 26 1011.6R
SAPELO ISLAND    0900   51     310/ 16     1012.0S

$$

ANZ835-935-AMZ111-154-330-350-352-354-370-450-454-472-261100-
...C-MAN AND BUOY OBSERVATIONS...

STATION/POSITION TIME  TEMP    WIND        PRES    WAVE   SWELL
                       AIR SEA DIR/SP/G            HT/PER HT/PER/DIR
                 (UTC) (F)     (DEG/KT/KT) (MB)    (FT/S) (FT/S/D)
FOLLY BEACH CMAN 0900   60     300/  7/ 10 1008.8R
BUOY 41004       1000   76 75  180/ 27/ 35 1006.2F   9/ 7   2/15
BUOY 41008       1000   53 64  330/ 25/ 31 1010.6R   5/ 4   2/120/ 8
CAPERS NEARSHORE 0900   62     300/  6/ 10   N/A
FRIPP NEARSHORE  NOT AVBL


STATION/POSITION TIME  TEMP    WIND        PRES    WAVE   SWELL
                       AIR SEA DIR/SP/G            HT/PER HT/PER/DIR
                 (UTC) (F)     (DEG/KT/KT) (MB)    (FT/S) (FT/S/D)
5E ST. MARYS GA  1000      62                N/A     5/ 4
FRYING PAN BUOY  1000   76 71  190/ 19/ 23 1007.5F   6/ 5   2/140/ 9
BUOY 41025       1000   70     120/ 17/ 21 1009.3F   5/ 9   3/120/ 9
CAPE LOOKOUT NC  0900   67     130/ 13/ 15 1009.0F
BUOY 41002       0935   75 73  190/ 19/ 23 1014.6F   6/ 7
BUOY 41010       1000   79 78  190/ 21/ 25 1012.1S   8/ 6
ST AUGUSTINE FL  1000   54     310/ 12/ 15 1013.8R


$$



USA.gov is the U.S. government's official web portal to all federal, state and local government web resources and services.